This is the latest recevied weather packets stored in our database for station/object S53BL-10. If no packets are shown the sender has not sent any weather packets the latest 10 day(s).
| Time | Temp. | Humidity | Pressure | Rain* | Wind** | Luminosity | Snow |
|---|---|---|---|---|---|---|---|
| 1777235831 | 15.56° C | 40% | 1018.4 hPa | - | - | - | - |
| 1777234929 | 15.56° C | 40% | 1018.1 hPa | - | - | - | - |
| 1777234029 | 16.11° C | 40% | 1017.8 hPa | - | - | - | - |
| 1777233127 | 16.11° C | 39% | 1017.6 hPa | - | - | - | - |
| 1777232227 | 16.67° C | 39% | 1017.2 hPa | - | - | - | - |
| 1777231325 | 17.22° C | 38% | 1016.8 hPa | - | - | - | - |
| 1777230424 | 17.78° C | 38% | 1016.5 hPa | - | - | - | - |
| 1777229523 | 18.89° C | 37% | 1016.2 hPa | - | - | - | - |
| 1777228623 | 20° C | 35% | 1015.6 hPa | - | - | - | - |
| 1777227722 | 21.11° C | 34% | 1015.3 hPa | - | - | - | - |
| 1777226821 | 21.67° C | 34% | 1014.9 hPa | - | - | - | - |
| 1777225920 | 21.67° C | 33% | 1014.5 hPa | - | - | - | - |
| 1777225020 | 22.22° C | 32% | 1014.1 hPa | - | - | - | - |
| 1777224119 | 23.33° C | 30% | 1013.6 hPa | - | - | - | - |
| 1777223218 | 23.89° C | 29% | 1013.3 hPa | - | - | - | - |
| 1777222317 | 23.89° C | 28% | 1013.1 hPa | - | - | - | - |
| 1777221416 | 25° C | 26% | 1013 hPa | - | - | - | - |
| 1777220515 | 26.67° C | 18% | 1012.9 hPa | - | - | - | - |
| 1777219615 | 27.78° C | 18% | 1012.8 hPa | - | - | - | - |
| 1777218714 | 28.33° C | 17% | 1012.9 hPa | - | - | - | - |
| 1777217813 | 27.78° C | 18% | 1012.9 hPa | - | - | - | - |
| 1777216912 | 27.78° C | 16% | 1012.8 hPa | - | - | - | - |
| 1777216012 | 28.33° C | 16% | 1012.9 hPa | - | - | - | - |
| 1777215111 | 27.78° C | 16% | 1012.8 hPa | - | - | - | - |
| 1777214209 | 30° C | 16% | 1012.9 hPa | - | - | - | - |
* Rain since midnight (hover to see other rain measurements)
** Current wind speed in m/s (hover to see current wind gust speed)